TimeEDT,TemperatureF,Dew PointF,Humidity,Sea Level PressureIn,VisibilityMPH,Wind Direction,Wind SpeedMPH,Gust SpeedMPH,PrecipitationIn,Events,Conditions,WindDirDegrees,DateUTC
12:15 AM,55.8,53.1,91,30.11,10.0,South,3.5,-,N/A,,Overcast,170,2013-04-30 04:15:00
12:35 AM,56.1,52.7,88,30.11,10.0,SSE,4.6,-,N/A,,Overcast,150,2013-04-30 04:35:00
12:55 AM,55.9,52.7,89,30.11,10.0,ESE,4.6,-,N/A,,Overcast,120,2013-04-30 04:55:00
1:15 AM,55.9,52.0,87,30.11,10.0,SSE,4.6,-,N/A,,Overcast,160,2013-04-30 05:15:00
1:35 AM,56.3,50.5,81,30.11,10.0,SSE,6.9,-,N/A,,Overcast,150,2013-04-30 05:35:00
1:55 AM,56.3,50.0,79,30.11,10.0,South,5.8,-,N/A,,Overcast,170,2013-04-30 05:55:00
2:15 AM,55.9,50.0,80,30.11,10.0,SSE,3.5,-,N/A,,Overcast,150,2013-04-30 06:15:00
2:35 AM,55.8,50.0,81,30.11,10.0,SSE,4.6,-,N/A,,Overcast,150,2013-04-30 06:35:00
2:55 AM,55.4,50.5,84,30.12,10.0,SSE,4.6,-,N/A,Rain,Light Rain,150,2013-04-30 06:55:00
3:15 AM,54.9,51.1,87,30.12,10.0,Calm,Calm,-,N/A,Rain,Light Rain,0,2013-04-30 07:15:00
3:35 AM,54.7,51.8,90,30.12,10.0,Calm,Calm,-,N/A,Rain,Rain,0,2013-04-30 07:35:00
3:55 AM,54.1,52.0,92,30.13,7.0,Calm,Calm,-,N/A,,Drizzle,0,2013-04-30 07:55:00
4:15 AM,53.6,52.3,95,30.13,5.0,Calm,Calm,-,0.01,,Drizzle,0,2013-04-30 08:15:00
4:35 AM,53.6,52.7,97,30.14,10.0,Calm,Calm,-,0.01,,Overcast,0,2013-04-30 08:35:00
4:55 AM,53.2,52.7,98,30.14,7.0,Calm,Calm,-,N/A,,Overcast,0,2013-04-30 08:55:00
5:15 AM,53.4,52.2,95,30.14,10.0,Calm,Calm,-,N/A,,Overcast,0,2013-04-30 09:15:00
5:35 AM,53.6,51.8,94,30.15,10.0,Calm,Calm,-,N/A,,Overcast,0,2013-04-30 09:35:00
5:56 AM,53.6,51.8,94,30.15,10.0,Calm,Calm,-,N/A,,Overcast,0,2013-04-30 09:56:00
6:53 AM,53.6,51.8,94,30.18,10.0,SSE,5.8,-,N/A,,Overcast,160,2013-04-30 10:53:00
7:18 AM,53.6,51.8,94,30.18,10.0,East,4.6,-,N/A,,Overcast,100,2013-04-30 11:18:00
7:53 AM,53.6,51.8,94,30.18,10.0,SSE,9.2,-,N/A,,Overcast,160,2013-04-30 11:53:00
8:53 AM,55.4,51.8,88,30.21,10.0,SE,3.5,-,N/A,,Overcast,130,2013-04-30 12:53:00
9:53 AM,55.4,51.8,88,30.21,10.0,SE,5.8,-,N/A,,Overcast,130,2013-04-30 13:53:00
10:53 AM,55.4,51.8,88,30.22,10.0,SSE,8.1,-,N/A,,Overcast,150,2013-04-30 14:53:00
11:53 AM,55.4,51.8,88,30.23,10.0,SSE,6.9,-,N/A,,Overcast,150,2013-04-30 15:53:00
12:53 PM,57.2,51.8,82,30.23,10.0,SSE,4.6,-,N/A,,Overcast,150,2013-04-30 16:53:00
2:53 PM,59.0,50.0,72,30.25,10.0,South,6.9,-,N/A,,Overcast,180,2013-04-30 18:53:00
3:53 PM,59.0,50.0,72,30.24,10.0,South,4.6,-,N/A,,Overcast,170,2013-04-30 19:53:00
4:53 PM,59.0,50.0,72,30.24,7.0,Calm,Calm,-,N/A,,Overcast,0,2013-04-30 20:53:00
5:53 PM,59.0,50.0,72,30.25,10.0,SSE,4.6,-,N/A,,Overcast,150,2013-04-30 21:53:00
6:53 PM,59.0,50.0,72,30.24,10.0,SSE,4.6,-,N/A,,Overcast,150,2013-04-30 22:53:00
7:53 PM,59.0,50.0,72,30.24,10.0,SSE,5.8,-,N/A,,Overcast,160,2013-04-30 23:53:00
9:15 PM,58.1,50.5,76,30.25,10.0,Calm,Calm,-,N/A,,Overcast,0,2013-05-01 01:15:00
9:35 PM,58.3,50.7,76,30.26,10.0,West,3.5,-,N/A,,Overcast,260,2013-05-01 01:35:00
9:55 PM,57.6,51.1,79,30.27,10.0,WSW,4.6,-,N/A,,Overcast,240,2013-05-01 01:55:00
10:15 PM,56.3,50.7,82,30.27,10.0,Calm,Calm,-,N/A,,Mostly Cloudy,0,2013-05-01 02:15:00
10:35 PM,55.2,50.2,83,30.27,10.0,South,3.5,-,N/A,,Clear,190,2013-05-01 02:35:00
10:55 PM,55.4,50.2,83,30.26,10.0,South,3.5,-,N/A,,Clear,190,2013-05-01 02:55:00
11:15 PM,55.4,50.4,83,30.27,10.0,Calm,Calm,-,N/A,,Clear,0,2013-05-01 03:15:00
11:35 PM,55.2,49.6,81,30.28,10.0,Calm,Calm,-,N/A,,Scattered Clouds,0,2013-05-01 03:35:00